Showing default

COSMOS 2535, 44421

Orbit data source: Space-Track

COSMOS 2535, 44421 is a payload satellite owned by TS VS RF (CIS) in SSO that was launched on Wed, 10 Jul 2019 UTC via a SOYUZ-2-1V launch vehicle from the Plesetsk Missile And Space Complex (PKMTR). Payload-class satellites include a variety of spacecraft equipped with specific instruments for various scientific and technological missions. These include communications satellites like Starlink; space stations such as the ISS; scientific satellites like the Hubble; Earth observation satellites from companies like Planet Labs, Umbra, and HawkEye 360; GPS; miniature CubeSats for education and research; and military/defense satellites.

Loading next visibility...
Identifier
44421, 2019-039A
Orbit
SSO
Last TLE update
7 hours ago
Origin
Manufacturer
Lavochkin
Mission
Non-operational Defense Technology
Bus & Motor
KARAT-200, Unknown motor
Mass
547 kg wet, ~400 kg dry
Launch date (UTC)
2019-07-10 (6 years ago)
Launch vehicle
SOYUZ-2-1V
Launch site
Plesetsk Missile And Space Complex (PKMTR)
Object type
Payload
Rocket body
Debris
Shape & HBR
Cyl + 2 Pan, 3 m
Radar Cross Section
3.727 m², Large (>1 m²)

Expand to show TLE details & history

TLE from 7 hours ago
0 COSMOS 2535
1 44421U 19039A   25131.23391932  .00001357  00000-0  14377-3 0  9992
2 44421  97.6212 168.9989 0010200 108.0533 252.1797 14.90680475316633
Epoch: 2025-05-11T05:36Z
Definitive object data (Epoch: 2025-05-11T05:36:50.629Z)
Latitude
-0.00008°
Longitude
-144.47633°
Altitude
601.041 km
Speed
7.558 km/s
True Right ascension
11h 15m 59s
True Declination
0° 00' 00"
Sunlit
Object was in full shadow at TLE epoch
Visualization TLE readout
Latitude
40.82763°
Longitude
42.41022°
Altitude
595.69 km
Speed
7.569 km/s
Apparent Right ascension
03h 58m 02s
Apparent Declination
7° 22' 11"
Sunlit
Object is in daylight
Visualization observer readout
Local Sidereal Time
20:58:25
Azimuth
74.706° E
Elevation
-6.508°
Doppler factor
1
Orbital elements
Apogee altitude
599.937 km
Perigee altitude
585.716 km
Semi-major axis
6,970.964 km
Eccentricity
0.00102
Inclination
97.6212°
RAAN
168.9989°
Arg. of periapsis
108.0533°
True anomaly
252.06847°
Mean anomaly
252.1797°
Eccentric anomaly
252.12408°
Mean motion
3.7291 °/min
BSTAR
0.00014377
Orbital period
96.54 mins
Loading maneuver chart data...
Loading SW <> Apogee altitude chart data...

COSMOS 2535 Visibility forecast

Observer location: undefined°, undefined°

Span
Click to sort rows by Start time (UTC) header in descending order
Start Az.
Max El. time (UTC)
Max El. Az.
Max El.
End time (UTC)
End Az.
4 mins2025-05-11 14:15:40.683Z57.168° ENE2025-05-11 14:17:40.683Z86.515° E14.508°2025-05-11 14:19:40.683Z118.65° SE
6 mins2025-05-11 15:51:40.683Z343.803° N2025-05-11 15:53:40.683Z293.721° NW32.881°2025-05-11 15:57:40.683Z217.984° SW
7 mins2025-05-12 02:40:40.683Z176.875° S2025-05-12 02:43:40.683Z219.318° SW41.465°2025-05-12 02:47:40.683Z341.219° N
|